This is the latest recevied weather packets stored in our database for station/object N4QD-13. If no packets are shown the sender has not sent any weather packets the latest 10 day(s).
| Time | Temp. | Humidity | Pressure | Rain* | Wind** | Luminosity | Snow |
|---|---|---|---|---|---|---|---|
| 1777166791 | 13.89° C | 99% | 1012.2 hPa | 1.78 mm | - | 0 W/m² | - |
| 1777166486 | 13.89° C | 99% | 1012.1 hPa | 1.78 mm | - | 0 W/m² | - |
| 1777166181 | 13.89° C | 99% | 1012.2 hPa | 0 mm | - | 0 W/m² | - |
| 1777165879 | 13.89° C | 99% | 1012 hPa | 1.27 mm | - | 0 W/m² | - |
| 1777165577 | 13.89° C | 99% | 1012.1 hPa | 4.32 mm | - | 0 W/m² | - |
| 1777165274 | 13.89° C | 99% | 1012.3 hPa | 6.1 mm | - | 0 W/m² | - |
| 1777164968 | 13.89° C | 99% | 1012.3 hPa | 3.05 mm | - | 0 W/m² | - |
| 1777164668 | 13.89° C | 99% | 1012.2 hPa | 1.78 mm | - | 0 W/m² | - |
| 1777164367 | 13.89° C | 99% | 1012.1 hPa | 1.78 mm | - | 0 W/m² | - |
| 1777164062 | 13.89° C | 99% | 1012.4 hPa | 1.27 mm | - | 0 W/m² | - |
| 1777163761 | 13.89° C | 99% | 1012.2 hPa | 1.27 mm | - | 0 W/m² | - |
| 1777163461 | 13.89° C | 99% | 1012.1 hPa | 3.05 mm | - | 0 W/m² | - |
| 1777163158 | 13.89° C | 99% | 1012 hPa | 4.83 mm | - | 0 W/m² | - |
| 1777162853 | 13.89° C | 99% | 1012.1 hPa | 1.78 mm | - | 0 W/m² | - |
| 1777162549 | 14.44° C | 99% | 1012 hPa | 1.78 mm | - | 0 W/m² | - |
| 1777162248 | 14.44° C | 99% | 1012 hPa | 3.05 mm | - | 0 W/m² | - |
| 1777161943 | 13.89° C | 99% | 1012.1 hPa | 3.05 mm | - | 0 W/m² | - |
| 1777161639 | 13.89° C | 99% | 1012.1 hPa | 1.27 mm | - | 0 W/m² | - |
| 1777161336 | 14.44° C | 99% | 1012.1 hPa | 0 mm | - | 0 W/m² | - |
| 1777161033 | 14.44° C | 99% | 1011.9 hPa | 1.78 mm | - | 0 W/m² | - |
| 1777160729 | 14.44° C | 99% | 1011.9 hPa | 4.83 mm | - | 1 W/m² | - |
| 1777160423 | 14.44° C | 99% | 1011.6 hPa | 6.1 mm | - | 1 W/m² | - |
| 1777160120 | 14.44° C | 99% | 1011.6 hPa | 6.1 mm | - | 0 W/m² | - |
| 1777159816 | 14.44° C | 99% | 1011.6 hPa | 4.32 mm | - | 0 W/m² | - |
| 1777159512 | 14.44° C | 99% | 1011.8 hPa | 1.27 mm | - | 0 W/m² | - |
* Rain latest hour (hover to see other rain measurements)
** Current wind speed in m/s (hover to see current wind gust speed)